| time (UTC) | temp F | wind direction | speed knots | gust knots | rain 1hr in | rain 24hr in | rain mn in | humidity % | barometer mb |
| 20260502234206 | 50 | 350 | 0.0 | 0.0 | 0.00 | 0.11 | 0.11 | 94 | 1010.3 |
| 20260502232705 | 50 | 349 | 0.0 | 0.9 | 0.00 | 0.11 | 0.11 | 94 | 1010.2 |
| 20260502232206 | 50 | 355 | 0.0 | 0.0 | 0.00 | 0.11 | 0.11 | 94 | 1010.2 |
| 20260502231705 | 50 | 355 | 0.0 | 0.0 | 0.00 | 0.11 | 0.11 | 94 | 1010.2 |
| 20260502230706 | 50 | 355 | 0.0 | 0.0 | 0.00 | 0.11 | 0.11 | 94 | 1010.0 |
| 20260502230206 | 50 | 355 | 0.0 | 0.0 | 0.00 | 0.11 | 0.11 | 94 | 1009.9 |
| 20260502224706 | 50 | 355 | 0.0 | 0.0 | 0.01 | 0.11 | 0.11 | 93 | 1009.6 |
| 20260502224205 | 50 | 355 | 0.0 | 0.0 | 0.01 | 0.11 | 0.11 | 93 | 1009.6 |
| 20260502222706 | 50 | 355 | 0.0 | 0.0 | 0.02 | 0.11 | 0.11 | 93 | 1009.5 |
| 20260502221706 | 50 | 355 | 0.0 | 0.0 | 0.03 | 0.11 | 0.11 | 92 | 1009.6 |
| 20260502220705 | 50 | 355 | 0.0 | 0.0 | 0.03 | 0.11 | 0.11 | 92 | 1009.7 |
| 20260502220206 | 50 | 355 | 0.0 | 0.0 | 0.03 | 0.11 | 0.11 | 92 | 1009.7 |
| 20260502215206 | 51 | 355 | 0.0 | 0.0 | 0.02 | 0.10 | 0.10 | 92 | 1009.8 |
| 20260502214205 | 51 | 355 | 0.0 | 0.0 | 0.02 | 0.10 | 0.10 | 91 | 1009.9 |
| 20260502212706 | 51 | 355 | 0.0 | 0.0 | 0.01 | 0.09 | 0.09 | 90 | 1009.8 |
| 20260502212206 | 51 | 355 | 0.0 | 0.0 | 0.01 | 0.09 | 0.09 | 90 | 1009.8 |
| 20260502211206 | 51 | 355 | 0.0 | 0.0 | 0.00 | 0.08 | 0.08 | 89 | 1009.7 |
| 20260502210206 | 51 | 355 | 0.0 | 0.0 | 0.00 | 0.08 | 0.08 | 88 | 1009.6 |
| 20260502205705 | 51 | 355 | 0.0 | 0.0 | 0.00 | 0.08 | 0.08 | 88 | 1009.6 |
| 20260502204705 | 52 | 355 | 0.0 | 0.0 | 0.00 | 0.08 | 0.08 | 87 | 1009.6 |
| 20260502204205 | 52 | 355 | 0.0 | 0.9 | 0.00 | 0.08 | 0.08 | 87 | 1009.7 |
| 20260502203705 | 52 | 351 | 0.0 | 0.0 | 0.00 | 0.08 | 0.08 | 86 | 1009.7 |
| 20260502201205 | 52 | 330 | 0.0 | 0.0 | 0.00 | 0.08 | 0.08 | 83 | 1009.8 |
| 20260502200205 | 52 | 330 | 0.0 | 0.9 | 0.00 | 0.08 | 0.08 | 82 | 1009.9 |
| 20260502195706 | 52 | 336 | 0.0 | 0.9 | 0.00 | 0.08 | 0.08 | 82 | 1009.8 |
| 20260502195205 | 53 | 335 | 0.0 | 1.7 | 0.00 | 0.08 | 0.08 | 82 | 1009.8 |
| 20260502194205 | 53 | 42 | 0.9 | 2.6 | 0.00 | 0.08 | 0.08 | 81 | 1010.0 |
| 20260502193705 | 53 | 297 | 0.0 | 0.9 | 0.00 | 0.08 | 0.08 | 81 | 1010.0 |
| 20260502192706 | 53 | 294 | 0.9 | 2.6 | 0.00 | 0.08 | 0.08 | 79 | 1010.1 |
| 20260502192206 | 54 | 340 | 1.7 | 4.3 | 0.00 | 0.08 | 0.08 | 78 | 1010.1 |
| 20260502191705 | 54 | 356 | 0.9 | 2.6 | 0.00 | 0.08 | 0.08 | 77 | 1010.0 |
| 20260502190705 | 56 | 354 | 0.9 | 2.6 | 0.00 | 0.08 | 0.08 | 75 | 1010.0 |
| 20260502185705 | 57 | 281 | 1.7 | 5.2 | 0.00 | 0.08 | 0.08 | 72 | 1009.9 |
| 20260502185206 | 57 | 291 | 1.7 | 6.1 | 0.00 | 0.08 | 0.08 | 70 | 1009.9 |
| 20260502184705 | 57 | 232 | 1.7 | 2.6 | 0.00 | 0.08 | 0.08 | 69 | 1009.9 |
| 20260502184206 | 57 | 200 | 0.9 | 2.6 | 0.00 | 0.08 | 0.08 | 69 | 1009.9 |
| 20260502183705 | 57 | 200 | 0.9 | 4.3 | 0.00 | 0.08 | 0.08 | 68 | 1009.9 |
| 20260502183205 | 57 | 193 | 0.9 | 1.7 | 0.00 | 0.08 | 0.08 | 69 | 1009.9 |
| 20260502182206 | 57 | 217 | 0.9 | 2.6 | 0.00 | 0.08 | 0.08 | 68 | 1010.0 |
| 20260502181206 | 57 | 167 | 2.6 | 7.0 | 0.00 | 0.08 | 0.08 | 68 | 1010.0 |
| 20260502180206 | 58 | 161 | 2.6 | 6.1 | 0.00 | 0.08 | 0.08 | 67 | 1010.0 |
| 20260502170206 | 54 | 159 | 0.9 | 5.2 | 0.00 | 0.08 | 0.08 | 79 | 1010.6 |
| 20260502163205 | 52 | 125 | 0.0 | 1.7 | 0.00 | 0.08 | 0.08 | 84 | 1011.2 |
| 20260502162705 | 52 | 167 | 1.7 | 2.6 | 0.00 | 0.08 | 0.08 | 84 | 1011.3 |
| 20260502162205 | 51 | 153 | 0.9 | 2.6 | 0.00 | 0.08 | 0.08 | 84 | 1011.3 |
| 20260502161706 | 51 | 191 | 0.9 | 2.6 | 0.00 | 0.08 | 0.08 | 83 | 1011.2 |
| 20260502160705 | 51 | 187 | 0.0 | 0.9 | 0.00 | 0.08 | 0.08 | 84 | 1011.2 |
| 20260502160206 | 51 | 188 | 0.9 | 2.6 | 0.00 | 0.08 | 0.08 | 83 | 1011.2 |
| 20260502152205 | 50 | 24 | 0.9 | 1.7 | 0.00 | 0.08 | 0.08 | 87 | 1011.4 |
| 20260502151706 | 50 | 71 | 0.9 | 2.6 | 0.00 | 0.08 | 0.08 | 86 | 1011.3 |
| 20260502151205 | 50 | 70 | 0.9 | 2.6 | 0.00 | 0.08 | 0.08 | 88 | 1011.4 |
| 20260502150706 | 49 | 170 | 0.0 | 0.0 | 0.00 | 0.08 | 0.08 | 89 | 1011.3 |
| 20260502130706 | 46 | 329 | 0.0 | 1.7 | 0.03 | 0.08 | 0.08 | 94 | 1012.0 |
| 20260502123704 | 46 | 315 | 0.0 | 0.0 | 0.04 | 0.06 | 0.06 | 93 | 1012.4 |
| 20260502122705 | 46 | 315 | 0.0 | 0.0 | 0.04 | 0.05 | 0.05 | 94 | 1012.4 |
| 20260502120205 | 45 | 314 | 0.0 | 0.0 | 0.04 | 0.05 | 0.05 | 93 | 1012.4 |
| 20260502114705 | 45 | 314 | 0.0 | 0.9 | 0.02 | 0.03 | 0.03 | 91 | 1012.7 |
| 20260502113706 | 46 | 317 | 0.0 | 0.0 | 0.01 | 0.02 | 0.02 | 91 | 1012.6 |
| 20260502112705 | 46 | 317 | 0.0 | 0.9 | 0.00 | 0.01 | 0.01 | 92 | 1012.0 |
| 20260502112205 | 46 | 317 | 0.0 | 0.0 | 0.00 | 0.01 | 0.01 | 92 | 1011.8 |
| 20260502111705 | 46 | 317 | 0.0 | 0.9 | 0.00 | 0.01 | 0.01 | 92 | 1011.7 |
| 20260502105705 | 45 | 317 | 0.0 | 0.0 | 0.01 | 0.01 | 0.01 | 92 | 1011.2 |
| 20260502103205 | 45 | 317 | 0.0 | 0.0 | 0.01 | 0.01 | 0.01 | 90 | 1011.4 |
| 20260502091205 | 47 | 46 | 0.0 | 1.7 | 0.00 | 0.00 | 0.00 | 85 | 1010.9 |
| 20260502090205 | 47 | 46 | 0.0 | 0.9 | 0.00 | 0.00 | 0.00 | 83 | 1011.1 |
| 20260502070205 | 45 | 46 | 0.9 | 2.6 | 0.00 | 0.00 | 0.00 | 82 | 1011.4 |
| 20260502065205 | 45 | 262 | 0.0 | 0.9 | 0.00 | 0.00 | 0.00 | 82 | 1011.5 |
| 20260502064205 | 45 | 262 | 0.0 | 0.0 | 0.00 | 0.00 | 0.00 | 81 | 1011.3 |
| 20260502063704 | 45 | 262 | 0.0 | 1.7 | 0.00 | 0.00 | 0.00 | 82 | 1011.2 |
| 20260502062705 | 45 | 246 | 0.0 | 0.0 | 0.00 | 0.00 | 0.00 | 82 | 1011.2 |
| 20260502060705 | 45 | 246 | 0.0 | 0.0 | 0.00 | 0.00 | 0.00 | 82 | 1011.1 |
| 20260502060204 | 45 | 246 | 0.0 | 0.0 | 0.00 | 0.00 | 0.00 | 82 | 1011.2 |
| 20260502054704 | 45 | 246 | 0.0 | 0.0 | 0.00 | 0.00 | 0.00 | 80 | 1011.0 |
| 20260502052705 | 45 | 246 | 0.0 | 0.0 | 0.00 | 0.00 | 0.00 | 80 | 1011.1 |
| 20260502051705 | 45 | 246 | 0.0 | 0.0 | 0.00 | 0.00 | 0.00 | 79 | 1011.2 |
| 20260502051205 | 45 | 246 | 0.0 | 0.0 | 0.00 | 0.00 | 0.00 | 79 | 1011.2 |
| 20260502050205 | 45 | 246 | 0.0 | 0.0 | 0.00 | 0.00 | 0.00 | 80 | 1011.2 |
| 20260502045205 | 45 | 246 | 0.0 | 0.0 | 0.00 | 0.00 | 0.00 | 78 | 1011.4 |
| 20260502044705 | 45 | 246 | 0.0 | 0.0 | 0.00 | 0.00 | 0.00 | 77 | 1011.5 |
| 20260502044205 | 45 | 246 | 0.0 | 0.0 | 0.00 | 0.00 | 0.00 | 77 | 1011.5 |
| 20260502043205 | 45 | 246 | 0.0 | 0.0 | 0.00 | 0.00 | 0.00 | 78 | 1011.5 |
| 20260502042204 | 45 | 246 | 0.0 | 0.0 | 0.00 | 0.00 | 0.00 | 78 | 1011.4 |
| 20260502041705 | 45 | 246 | 0.0 | 0.0 | 0.00 | 0.00 | 0.00 | 78 | 1011.3 |
| 20260502041205 | 45 | 246 | 0.0 | 0.0 | 0.00 | 0.00 | 0.00 | 78 | 1011.3 |
| 20260502034705 | 45 | 246 | 0.0 | 0.0 | 0.00 | 0.00 | 0.00 | 78 | 1011.2 |
| 20260502034204 | 45 | 246 | 0.0 | 0.0 | 0.00 | 0.00 | 0.00 | 77 | 1011.2 |
| 20260502031205 | 45 | 246 | 0.0 | 0.0 | 0.00 | 0.01 | 0.00 | 76 | 1011.1 |
| 20260502030704 | 45 | 246 | 0.0 | 0.0 | 0.00 | 0.01 | 0.00 | 76 | 1011.0 |
| 20260502025204 | 45 | 246 | 0.0 | 0.0 | 0.00 | 0.01 | 0.00 | 76 | 1011.0 |
| 20260502024704 | 45 | 246 | 0.0 | 0.0 | 0.00 | 0.01 | 0.00 | 76 | 1011.0 |
| 20260502022704 | 45 | 246 | 0.0 | 0.0 | 0.00 | 0.02 | 0.00 | 70 | 1011.0 |
| 20260502022205 | 45 | 246 | 0.0 | 0.0 | 0.00 | 0.02 | 0.00 | 69 | 1011.0 |
| 20260502020705 | 46 | 246 | 0.0 | 0.0 | 0.00 | 0.02 | 0.00 | 68 | 1011.1 |
| 20260502020204 | 46 | 246 | 0.0 | 0.0 | 0.00 | 0.02 | 0.00 | 67 | 1011.1 |
| 20260502015205 | 47 | 246 | 0.0 | 0.0 | 0.00 | 0.02 | 0.00 | 66 | 1011.0 |
| 20260502014705 | 47 | 246 | 0.0 | 0.0 | 0.00 | 0.02 | 0.00 | 64 | 1011.0 |
| 20260502012705 | 48 | 246 | 0.0 | 0.0 | 0.00 | 0.02 | 0.00 | 62 | 1010.9 |
| 20260502012205 | 49 | 246 | 0.0 | 0.0 | 0.00 | 0.02 | 0.00 | 61 | 1010.9 |
| 20260502011705 | 49 | 246 | 0.0 | 0.0 | 0.00 | 0.02 | 0.00 | 59 | 1010.8 |
| 20260502011205 | 50 | 246 | 0.0 | 0.0 | 0.00 | 0.02 | 0.00 | 59 | 1010.8 |
| 20260502003204 | 53 | 246 | 0.0 | 0.0 | 0.00 | 0.02 | 0.00 | 53 | 1010.3 |
| 20260502001704 | 54 | 246 | 0.0 | 0.0 | 0.00 | 0.02 | 0.00 | 50 | 1010.1 |
| 20260502001205 | 55 | 246 | 0.0 | 0.0 | 0.00 | 0.02 | 0.00 | 50 | 1010.0 |
| 20260502000205 | 56 | 246 | 0.0 | 0.0 | 0.00 | 0.02 | 0.00 | 54 | 1009.9 |
| 20260501235705 | 56 | 246 | 0.0 | 0.0 | 0.00 | 0.02 | 0.00 | 53 | 1009.8 |
| 20260501235204 | 57 | 246 | 0.0 | 0.0 | 0.00 | 0.02 | 0.00 | 49 | 1009.7 |
| 20260501234704 | 57 | 246 | 0.0 | 0.0 | 0.00 | 0.02 | 0.00 | 54 | 1009.6 |